N0DBM Weather Reports


time (UTC)temp
F
wind
direction
speed
knots
gust
knots
rain 1hr
in
rain 24hr
in
rain mn
in
humidity
%
barometer
mb
20260508002504 64 190 3.5 9.6 0.00 0.00 0.00 49 1010.7
20260508002007 64 190 3.5 8.7 0.00 0.00 0.00 49 1010.7
20260508001516 64 190 4.3 8.7 0.00 0.00 0.00 48 1010.8
20260508001004 65 190 1.7 10.4 0.00 0.00 0.00 49 1010.8
20260508000507 65 190 5.2 11.3 0.00 0.00 0.00 47 1010.8
20260508000016 65 190 4.3 11.3 0.00 0.00 0.00 47 1010.9
20260507235504 66 190 4.3 9.6 0.00 0.00 0.00 46 1010.9
20260507235003 66 190 3.5 11.3 0.00 0.00 0.00 46 1010.9
20260507234515 66 190 5.2 11.3 0.00 0.00 0.00 46 1010.9
20260507234003 66 190 5.2 12.2 0.00 0.00 0.00 46 1010.9
20260507233507 66 190 5.2 12.2 0.00 0.00 0.00 45 1011.0
20260507233017 66 190 3.5 9.6 0.00 0.00 0.00 46 1011.1
20260507232506 66 190 4.3 9.6 0.00 0.00 0.00 45 1011.0
20260507232004 66 190 5.2 13.0 0.00 0.00 0.00 45 1011.1
20260507231518 66 190 5.2 13.0 0.00 0.00 0.00 45 1011.1
20260507231004 66 190 7.0 12.2 0.00 0.00 0.00 44 1011.2
20260507230502 67 190 4.3 12.2 0.00 0.00 0.00 45 1011.3
20260507230016 67 190 3.5 13.0 0.00 0.00 0.00 45 1011.2
20260507225510 67 190 3.5 13.0 0.00 0.00 0.00 45 1011.3
20260507225007 66 190 5.2 10.4 0.00 0.00 0.00 45 1011.3
20260507224519 66 190 4.3 10.4 0.00 0.00 0.00 46 1011.5
20260507224005 65 190 4.3 11.3 0.00 0.00 0.00 45 1011.5
20260507223504 66 190 6.1 14.8 0.00 0.00 0.00 44 1011.6
20260507223007 67 190 6.1 14.8 0.00 0.00 0.00 43 1011.6
20260507222501 66 190 3.5 13.9 0.00 0.00 0.00 45 1011.7
20260507222004 65 190 4.3 13.9 0.00 0.00 0.00 44 1011.7
20260507221511 66 190 7.0 13.0 0.00 0.00 0.00 43 1011.5
20260507221003 66 190 6.1 13.0 0.00 0.00 0.00 44 1011.5
20260507220506 65 190 4.3 12.2 0.00 0.00 0.00 45 1011.5
20260507220017 65 190 6.1 12.2 0.00 0.00 0.00 44 1011.6
20260507215507 65 190 6.1 12.2 0.00 0.00 0.00 45 1011.6
20260507215003 65 190 4.3 11.3 0.00 0.00 0.00 45 1011.7
20260507214504 65 190 4.3 16.5 0.00 0.00 0.00 44 1011.7
20260507214002 66 190 6.1 16.5 0.00 0.00 0.00 43 1011.6
20260507213504 65 190 4.3 12.2 0.00 0.00 0.00 46 1011.6
20260507213004 65 190 6.1 12.2 0.00 0.00 0.00 45 1011.5
20260507212502 65 190 4.3 12.2 0.00 0.00 0.00 46 1011.7
20260507212002 65 190 5.2 13.9 0.00 0.00 0.00 44 1011.7
20260507211508 66 190 6.1 13.9 0.00 0.00 0.00 43 1011.7
20260507211003 66 190 6.1 14.8 0.00 0.00 0.00 42 1011.7
20260507210507 66 190 4.3 15.6 0.00 0.00 0.00 45 1011.7
20260507210016 65 190 7.8 15.6 0.00 0.00 0.00 43 1011.7
20260507205506 65 190 6.1 14.8 0.00 0.00 0.00 44 1011.9
20260507205009 65 190 6.1 15.6 0.00 0.00 0.00 45 1011.8
20260507204519 65 190 7.8 18.2 0.00 0.00 0.00 44 1011.9
20260507204006 66 190 6.1 18.2 0.00 0.00 0.00 43 1011.9
20260507203503 66 190 7.0 11.3 0.00 0.00 0.00 43 1011.9
20260507203004 66 190 3.5 10.4 0.00 0.00 0.00 44 1012.0
20260507202502 65 190 3.5 13.9 0.00 0.00 0.00 45 1012.1
20260507202002 66 190 7.0 13.9 0.00 0.00 0.00 44 1012.2
20260507201508 66 190 5.2 15.6 0.00 0.00 0.00 46 1012.2
20260507201003 66 190 7.0 15.6 0.00 0.00 0.00 44 1012.4
20260507200505 66 190 3.5 12.2 0.00 0.00 0.00 48 1012.5
20260507200013 65 190 5.2 13.9 0.00 0.00 0.00 47 1012.5
20260507195503 65 190 7.0 16.5 0.00 0.00 0.00 46 1012.5
20260507195003 65 190 7.0 16.5 0.00 0.00 0.00 46 1012.6
20260507194519 66 190 3.5 12.2 0.00 0.00 0.00 47 1012.6
20260507194007 66 190 6.1 12.2 0.00 0.00 0.00 44 1012.8
20260507193506 65 190 5.2 12.2 0.00 0.00 0.00 45 1012.9
20260507193028 65 190 3.5 11.3 0.00 0.00 0.00 45 1013.1
20260507192508 65 190 3.5 11.3 0.00 0.00 0.00 47 1013.0
20260507192003 64 190 3.5 11.3 0.00 0.00 0.00 47 1013.1
20260507191505 64 190 6.1 11.3 0.00 0.00 0.00 46 1013.2
20260507191002 64 190 3.5 11.3 0.00 0.00 0.00 47 1013.1
20260507190503 64 190 6.1 11.3 0.00 0.00 0.00 46 1013.2
20260507190008 64 190 2.6 13.9 0.00 0.00 0.00 48 1013.1
20260507185502 63 190 7.0 13.9 0.00 0.00 0.00 46 1013.2
20260507185003 64 190 5.2 13.9 0.00 0.00 0.00 46 1013.1
20260507184512 64 190 5.2 11.3 0.00 0.00 0.00 46 1013.1
20260507184004 63 190 3.5 11.3 0.00 0.00 0.00 46 1013.2
20260507183503 64 190 3.5 9.6 0.00 0.00 0.00 47 1013.3
20260507183032 64 190 3.5 10.4 0.00 0.00 0.00 43 1013.3
20260507182508 65 190 6.1 13.0 0.00 0.00 0.00 46 1013.5
20260507182008 65 190 5.2 13.0 0.00 0.00 0.00 45 1013.5
20260507181521 65 190 3.5 15.6 0.00 0.00 0.00 45 1013.6
20260507181009 65 190 3.5 15.6 0.00 0.00 0.00 46 1013.7
20260507180502 65 190 7.0 15.6 0.00 0.00 0.00 46 1013.7
20260507180004 65 190 1.7 9.6 0.00 0.00 0.00 46 1013.7
20260507175503 64 190 4.3 13.0 0.00 0.00 0.00 45 1013.8
20260507175003 64 190 7.0 13.0 0.00 0.00 0.00 45 1013.8
20260507174513 64 190 4.3 13.9 0.00 0.00 0.00 46 1013.9
20260507174002 64 190 5.2 13.9 0.00 0.00 0.00 47 1014.0
20260507173503 63 190 6.1 13.9 0.00 0.00 0.00 49 1014.0
20260507173014 63 190 4.3 11.3 0.00 0.00 0.00 49 1014.2
20260507172507 63 190 4.3 11.3 0.00 0.00 0.00 47 1014.1
20260507172007 63 190 3.5 14.8 0.00 0.00 0.00 48 1014.2
20260507171528 62 190 7.8 14.8 0.00 0.00 0.00 48 1014.3
20260507171007 62 190 6.1 14.8 0.00 0.00 0.00 49 1014.6
20260507170507 61 190 7.0 17.4 0.00 0.00 0.00 50 1014.3
20260507170024 61 190 5.2 17.4 0.00 0.00 0.00 50 1014.6
20260507165507 61 190 5.2 14.8 0.00 0.00 0.00 51 1014.7
20260507165003 61 190 7.0 15.6 0.00 0.00 0.00 49 1014.5
20260507164509 61 190 7.0 15.6 0.00 0.00 0.00 50 1014.7
20260507164004 62 190 4.3 13.9 0.00 0.00 0.00 52 1014.6
20260507163508 62 190 5.2 13.9 0.00 0.00 0.00 51 1014.7
20260507163011 61 190 7.0 13.9 0.00 0.00 0.00 51 1014.9
20260507162504 61 190 5.2 12.2 0.00 0.00 0.00 52 1014.9
20260507162006 60 190 5.2 13.0 0.00 0.00 0.00 52 1014.9
20260507161518 61 190 5.2 17.4 0.00 0.00 0.00 52 1015.0
20260507161004 62 190 7.8 17.4 0.00 0.00 0.00 51 1015.0
20260507160506 61 190 6.1 11.3 0.00 0.00 0.00 51 1014.9
20260507160030 61 190 6.1 13.9 0.00 0.00 0.00 50 1014.9
20260507155510 61 190 6.1 13.9 0.00 0.00 0.00 51 1014.9
20260507155010 61 190 5.2 13.9 0.00 0.00 0.00 51 1014.9
20260507154523 60 190 5.2 13.9 0.00 0.00 0.00 52 1014.9
20260507154010 60 190 6.1 13.0 0.00 0.00 0.00 52 1015.0
20260507153504 60 190 4.3 13.0 0.00 0.00 0.00 52 1015.0
20260507153011 60 190 4.3 11.3 0.00 0.00 0.00 53 1015.0
20260507152503 60 190 2.6 7.0 0.00 0.00 0.00 52 1015.1
20260507152004 60 190 3.5 9.6 0.00 0.00 0.00 55 1015.2
20260507151515 59 190 2.6 10.4 0.00 0.00 0.00 56 1015.1
20260507151003 59 190 5.2 13.9 0.00 0.00 0.00 55 1015.1
20260507150510 58 190 7.0 13.9 0.00 0.00 0.00 56 1015.4
20260507150018 58 190 6.1 13.9 0.00 0.00 0.00 58 1015.3
20260507145508 58 190 5.2 10.4 0.00 0.00 0.00 56 1015.2
20260507145005 58 190 3.5 10.4 0.00 0.00 0.00 57 1015.1
20260507144522 58 190 5.2 9.6 0.00 0.00 0.00 57 1015.3
20260507144007 57 190 5.2 11.3 0.00 0.00 0.00 56 1015.2
20260507143508 57 190 3.5 11.3 0.00 0.00 0.00 57 1015.3
20260507143038 57 190 5.2 11.3 0.00 0.00 0.00 58 1015.3
20260507142509 56 190 3.5 11.3 0.00 0.00 0.00 57 1015.4
20260507142003 56 190 4.3 11.3 0.00 0.00 0.00 57 1015.4
20260507141512 55 190 4.3 11.3 0.00 0.00 0.00 58 1015.5
20260507141004 55 190 6.1 14.8 0.00 0.00 0.00 57 1015.5
20260507140504 55 190 3.5 14.8 0.00 0.00 0.00 58 1015.6
20260507140019 54 190 3.5 12.2 0.00 0.00 0.00 58 1015.6
20260507135504 54 190 5.2 12.2 0.00 0.00 0.00 57 1015.7
20260507135007 54 190 4.3 10.4 0.00 0.00 0.00 57 1015.7
20260507134520 54 190 6.1 10.4 0.00 0.00 0.00 56 1015.8
20260507134007 53 190 4.3 10.4 0.00 0.00 0.00 56 1015.8
20260507133502 53 190 6.1 10.4 0.00 0.00 0.00 55 1015.8
20260507133003 53 190 3.5 8.7 0.00 0.00 0.00 57 1015.9
20260507132503 52 190 4.3 8.7 0.00 0.00 0.00 57 1015.9
20260507132002 51 190 1.7 8.7 0.00 0.00 0.00 60 1015.9
20260507131510 51 190 4.3 8.7 0.00 0.00 0.00 61 1015.9
20260507131004 50 190 2.6 6.1 0.00 0.00 0.00 63 1016.0
20260507130503 49 190 2.6 5.2 0.00 0.00 0.00 64 1015.9
20260507130029 49 190 2.6 7.8 0.00 0.00 0.00 65 1016.0
20260507125509 48 190 4.3 7.8 0.00 0.00 0.00 65 1016.0
20260507125007 48 190 3.5 8.7 0.00 0.00 0.00 66 1016.0
20260507124517 47 190 2.6 8.7 0.00 0.00 0.00 66 1016.0
20260507124007 47 190 3.5 7.0 0.00 0.00 0.00 67 1016.0
20260507123507 46 190 3.5 6.1 0.00 0.00 0.00 67 1016.0
20260507123022 46 190 2.6 7.0 0.00 0.00 0.00 68 1016.0
20260507122506 45 190 2.6 7.0 0.00 0.00 0.00 69 1016.0
20260507122003 45 190 1.7 7.0 0.00 0.00 0.00 69 1016.0
20260507121504 45 190 1.7 7.0 0.00 0.00 0.00 69 1015.9
20260507121003 45 190 2.6 7.0 0.00 0.00 0.00 69 1015.9
20260507120502 44 190 1.7 7.8 0.00 0.00 0.00 69 1015.9
20260507120008 44 190 3.5 7.8 0.00 0.00 0.00 69 1015.8
20260507115504 44 190 2.6 6.1 0.00 0.00 0.00 70 1015.9
20260507115003 44 190 1.7 6.1 0.00 0.00 0.00 70 1015.8
20260507114520 43 190 1.7 6.1 0.00 0.00 0.00 71 1015.8
20260507114004 43 190 1.7 5.2 0.00 0.00 0.00 72 1015.8
20260507113506 42 190 1.7 5.2 0.00 0.00 0.00 72 1015.8
20260507113017 42 190 1.7 5.2 0.00 0.00 0.00 72 1015.7
20260507112507 42 190 0.9 5.2 0.00 0.00 0.00 72 1015.8
20260507112009 42 190 1.7 5.2 0.00 0.00 0.00 72 1015.8
20260507111522 42 190 1.7 4.3 0.00 0.00 0.00 72 1015.8
20260507111006 42 190 0.0 3.5 0.00 0.00 0.00 72 1015.9
20260507110504 43 190 0.9 3.5 0.00 0.00 0.00 72 1015.9
20260507110007 43 190 1.7 5.2 0.00 0.00 0.00 71 1015.9
20260507105504 43 190 0.9 5.2 0.00 0.00 0.00 71 1015.9
20260507105003 43 190 1.7 5.2 0.00 0.00 0.00 70 1016.0
20260507104512 43 190 1.7 5.2 0.00 0.00 0.00 70 1016.0
20260507104004 43 190 1.7 5.2 0.00 0.00 0.00 69 1016.0
20260507103503 44 190 2.6 5.2 0.00 0.00 0.00 68 1016.0
20260507103014 44 190 1.7 6.1 0.00 0.00 0.00 67 1016.0
20260507102504 44 190 0.9 7.8 0.00 0.00 0.00 67 1016.0
20260507102006 44 190 1.7 7.8 0.00 0.00 0.00 66 1015.9
20260507101522 44 190 2.6 6.1 0.00 0.00 0.00 67 1015.9
20260507101005 44 190 1.7 7.0 0.00 0.00 0.00 66 1015.9
20260507100507 44 190 2.6 7.0 0.00 0.00 0.00 66 1015.9
20260507100032 44 190 1.7 5.2 0.00 0.00 0.00 67 1015.9
20260507095507 44 190 1.7 5.2 0.00 0.00 0.00 67 1015.9
20260507095009 43 190 1.7 4.3 0.00 0.00 0.00 68 1016.0
20260507094506 43 190 1.7 3.5 0.00 0.00 0.00 69 1015.9
20260507094006 43 190 1.7 3.5 0.00 0.00 0.00 69 1015.9
20260507093503 43 190 0.9 3.5 0.00 0.00 0.00 69 1016.0
20260507093012 43 190 0.9 3.5 0.00 0.00 0.00 69 1016.0
20260507092504 43 190 1.7 3.5 0.00 0.00 0.00 69 1016.1
20260507092008 43 190 0.9 3.5 0.00 0.00 0.00 69 1016.1
20260507091519 43 190 0.9 3.5 0.00 0.00 0.00 69 1016.1
20260507091009 43 190 0.9 2.6 0.00 0.00 0.00 69 1016.1
20260507090507 43 190 0.9 3.5 0.00 0.00 0.00 70 1016.0
20260507090020 43 190 0.9 3.5 0.00 0.00 0.00 69 1016.1
20260507085505 43 190 0.9 1.7 0.00 0.00 0.00 70 1016.2
20260507085007 43 190 0.0 1.7 0.00 0.00 0.00 69 1016.2
20260507084525 43 190 0.0 2.6 0.00 0.00 0.00 69 1016.1
20260507084010 43 190 0.9 2.6 0.00 0.00 0.00 69 1016.2
20260507083510 43 190 0.9 1.7 0.00 0.00 0.00 69 1016.3
20260507083008 43 190 0.0 1.7 0.00 0.00 0.00 69 1016.3
20260507082501 43 190 0.0 1.7 0.00 0.00 0.00 68 1016.3
20260507082004 43 190 0.0 1.7 0.00 0.00 0.00 68 1016.3
20260507081513 44 190 0.0 1.7 0.00 0.00 0.00 68 1016.4
20260507081007 44 190 0.9 1.7 0.00 0.00 0.00 68 1016.4
20260507080506 44 190 0.0 3.5 0.00 0.00 0.00 67 1016.4
20260507080016 44 190 0.0 3.5 0.00 0.00 0.00 66 1016.4
20260507075509 44 190 0.9 2.6 0.00 0.00 0.00 66 1016.4
20260507075008 44 190 0.0 3.5 0.00 0.00 0.00 66 1016.4
20260507074524 44 190 0.9 3.5 0.00 0.00 0.00 66 1016.5
20260507074009 44 190 0.0 0.9 0.00 0.00 0.00 66 1016.5
20260507073507 44 190 0.0 0.9 0.00 0.00 0.00 67 1016.6
20260507073030 44 190 0.0 2.6 0.00 0.00 0.00 67 1016.6
20260507072508 44 190 0.9 2.6 0.00 0.00 0.00 67 1016.7
20260507072007 44 190 0.0 0.0 0.00 0.00 0.00 68 1016.7
20260507071516 44 190 0.0 0.0 0.00 0.00 0.00 68 1016.7
20260507071006 44 190 0.0 0.0 0.00 0.00 0.00 68 1016.8
20260507070506 44 190 0.0 0.0 0.00 0.00 0.00 67 1017.0
20260507070016 45 190 0.0 0.0 0.00 0.00 0.00 67 1017.0
20260507065507 45 190 0.0 0.0 0.00 0.00 0.00 66 1016.8
20260507065004 45 190 0.0 0.0 0.00 0.00 0.00 63 1016.9
20260507064531 45 190 0.0 0.0 0.00 0.00 0.00 65 1017.0
20260507064007 44 190 0.0 0.0 0.00 0.00 0.00 64 1017.0
20260507063508 44 190 0.0 0.0 0.00 0.00 0.00 67 1017.1
20260507063022 44 190 0.0 0.0 0.00 0.00 0.00 72 1017.1
20260507062512 43 190 0.0 0.0 0.00 0.00 0.00 75 1017.1
20260507062011 43 190 0.0 0.0 0.00 0.00 0.00 74 1017.1
20260507061529 43 190 0.0 0.0 0.00 0.00 0.00 72 1017.2
20260507061009 43 190 0.0 0.0 0.00 0.00 0.00 74 1017.2
20260507060506 43 190 0.0 0.0 0.00 0.00 0.00 74 1017.1
20260507060012 43 190 0.0 0.0 0.00 0.00 0.00 75 1017.1
20260507055503 43 190 0.0 0.0 0.00 0.00 0.00 74 1017.2
20260507055007 43 190 0.0 0.0 0.00 0.00 0.00 73 1017.2
20260507054516 44 190 0.0 0.0 0.00 0.00 0.00 72 1017.2
20260507054008 45 190 0.0 0.0 0.00 0.00 0.00 67 1017.2
20260507053507 45 190 0.0 0.0 0.00 0.00 0.00 60 1017.3
20260507053020 44 190 0.0 0.0 0.00 0.00 0.00 60 1017.4
20260507052506 44 190 0.0 0.0 0.00 0.00 0.00 62 1017.3
20260507052010 43 190 0.0 0.0 0.00 0.00 0.00 68 1017.4
20260507051524 42 190 0.0 0.0 0.00 0.00 0.00 70 1017.4
20260507051006 42 190 0.0 0.0 0.00 0.00 0.00 73 1017.3
20260507050509 43 190 0.0 0.0 0.00 0.00 0.00 72 1017.4
20260507050038 43 190 0.0 0.0 0.00 0.00 0.00 70 1017.3
20260507045512 44 190 0.0 0.0 0.00 0.00 0.00 67 1017.3
20260507045008 44 190 0.0 0.0 0.00 0.00 0.00 65 1017.3
20260507044527 43 190 0.0 0.0 0.00 0.00 0.00 66 1017.4
20260507044004 44 190 0.0 0.0 0.00 0.00 0.00 67 1017.4
20260507043506 44 190 0.0 0.0 0.00 0.00 0.00 66 1017.4
20260507043016 43 190 0.0 0.0 0.00 0.00 0.00 66 1017.4
20260507042507 42 190 0.0 0.0 0.00 0.00 0.00 70 1017.4
20260507042007 42 190 0.0 0.0 0.00 0.00 0.00 72 1017.3
20260507041526 43 190 0.0 0.0 0.00 0.00 0.00 72 1017.4
20260507041006 43 190 0.0 0.0 0.00 0.00 0.00 71 1017.4
20260507040509 43 190 0.0 0.0 0.00 0.00 0.00 70 1017.4
20260507040026 43 190 0.0 0.0 0.00 0.00 0.00 70 1017.4
20260507035504 44 190 0.0 0.0 0.00 0.00 0.00 68 1017.4
20260507035004 44 190 0.0 0.0 0.00 0.00 0.00 68 1017.4
20260507034512 44 190 0.0 0.0 0.00 0.00 0.00 66 1017.4
20260507034004 44 190 0.0 0.0 0.00 0.00 0.00 64 1017.4
20260507033504 45 190 0.0 0.0 0.00 0.00 0.00 63 1017.4
20260507033014 45 190 0.0 0.0 0.00 0.00 0.00 59 1017.5
20260507032507 45 190 0.0 0.0 0.00 0.00 0.00 60 1017.4
20260507032007 45 190 0.0 0.0 0.00 0.00 0.00 64 1017.5
20260507031521 45 190 0.0 0.0 0.00 0.00 0.00 63 1017.5
20260507031007 45 190 0.0 0.0 0.00 0.00 0.00 63 1017.5
20260507030516 45 190 0.0 0.0 0.00 0.00 0.00 61 1017.4
20260507030029 46 190 0.0 0.0 0.00 0.00 0.00 61 1017.4
20260507025507 46 190 0.0 0.0 0.00 0.00 0.00 60 1017.4
20260507025010 46 190 0.0 0.0 0.00 0.00 0.00 59 1017.4
20260507024528 46 190 0.0 0.0 0.00 0.00 0.00 60 1017.4
20260507024002 47 190 0.0 0.0 0.00 0.00 0.00 57 1017.3
20260507023504 47 190 0.0 0.0 0.00 0.00 0.00 57 1017.3
20260507023010 47 190 0.0 0.0 0.00 0.00 0.00 53 1017.4
20260507022503 47 190 0.0 0.0 0.00 0.00 0.00 55 1017.3
20260507022004 47 190 0.0 0.0 0.00 0.00 0.00 53 1017.2
20260507021516 47 190 0.0 0.0 0.00 0.00 0.00 52 1017.2
20260507021006 48 190 0.0 0.0 0.00 0.00 0.00 52 1017.1
20260507020509 48 190 0.0 0.0 0.00 0.00 0.00 51 1017.1
20260507020020 49 190 0.0 0.0 0.00 0.00 0.00 50 1017.1
20260507015508 49 190 0.0 0.0 0.00 0.00 0.00 49 1017.0
20260507015013 50 190 0.0 0.0 0.00 0.00 0.00 48 1016.9
20260507014524 51 190 0.0 0.0 0.00 0.00 0.00 47 1016.8
20260507014008 51 190 0.0 0.0 0.00 0.00 0.00 44 1016.8
20260507013507 52 190 0.0 0.0 0.00 0.00 0.00 44 1016.8
20260507013027 52 190 0.0 0.0 0.00 0.00 0.00 44 1016.7
20260507012503 52 190 0.0 0.9 0.00 0.00 0.00 42 1016.7
20260507012004 53 190 0.0 1.7 0.00 0.00 0.00 42 1016.7
20260507011513 53 190 0.0 1.7 0.00 0.00 0.00 41 1016.7
20260507011003 53 190 0.9 4.3 0.00 0.00 0.00 41 1016.7
20260507010504 53 190 1.7 4.3 0.00 0.00 0.00 41 1016.7
20260507010023 54 190 0.0 3.5 0.00 0.00 0.00 41 1016.6
20260507005504 54 190 1.7 4.3 0.00 0.00 0.00 40 1016.6
20260507005009 54 190 0.0 4.3 0.00 0.00 0.00 41 1016.6
20260507004523 54 190 1.7 4.3 0.00 0.00 0.00 40 1016.6
20260507004010 54 190 2.6 5.2 0.00 0.00 0.00 40 1016.6
20260507003512 54 190 3.5 5.2 0.00 0.00 0.00 39 1016.6
20260507003024 55 190 2.6 6.1 0.00 0.00 0.00 39 1016.5